TROJ01 YWLM-YPTN

Flight info

Callsign TROJ01
Flight time N/A
Altitude 28000
Route WLM DCT UBSON DCT NICLA DCT SORTI DCT SANAD DCT TW W542 OVNOM W655 SULMI/N0328F280 DCT IVRAD Q57 MIGAX A464 TN
Aircraft C30J/M-SDE2E3FGRY/H

Departure

Time 2026-04-30 09:38
Airport Newcastle Airport (YWLM)

Arrival

Time N/A
Airport Tindal Airport (YPTN)
Time Latitude Longitude Altitude Speed Heading
2026-04-30 09:19 -32.79688 151.84282 30 ft 0 kts 235°
2026-04-30 09:34 -32.79720 151.84229 30 ft 21 kts 235°
2026-04-30 09:34 -32.79768 151.84153 32 ft 0 kts 227°
2026-04-30 09:35 -32.79798 151.84124 33 ft 13 kts 210°
2026-04-30 09:35 -32.79888 151.84186 32 ft 17 kts 129°
2026-04-30 09:36 -32.79954 151.84278 31 ft 16 kts 130°
2026-04-30 09:36 -32.80048 151.84410 30 ft 25 kts 130°
2026-04-30 09:36 -32.80096 151.84478 28 ft 17 kts 130°
2026-04-30 09:36 -32.80191 151.84554 28 ft 4 kts 188°
2026-04-30 09:37 -32.80205 151.84546 28 ft 9 kts 210°
2026-04-30 09:37 -32.80265 151.84474 28 ft 13 kts 248°
2026-04-30 09:37 -32.80202 151.84337 27 ft 39 kts 310°
2026-04-30 09:38 -32.79865 151.83872 32 ft 107 kts 310°
2026-04-30 09:38 -32.79279 151.83077 143 ft 140 kts 312°
2026-04-30 09:38 -32.78594 151.82136 353 ft 161 kts 311°
2026-04-30 09:38 -32.77871 151.81133 805 ft 160 kts 313°
2026-04-30 09:39 -32.77136 151.80115 1193 ft 170 kts 314°
2026-04-30 09:39 -32.76356 151.79023 1845 ft 178 kts 315°
2026-04-30 09:39 -32.75535 151.77868 2613 ft 182 kts 315°
2026-04-30 09:39 -32.74715 151.76712 3412 ft 184 kts 314°
2026-04-30 09:40 -32.73892 151.75554 4203 ft 185 kts 313°
2026-04-30 09:40 -32.73073 151.74404 4983 ft 187 kts 312°
2026-04-30 09:40 -32.72232 151.73225 5781 ft 188 kts 312°
2026-04-30 09:40 -32.71382 151.72037 6570 ft 190 kts 311°
2026-04-30 09:41 -32.70520 151.70835 7323 ft 192 kts 312°
2026-04-30 09:41 -32.69654 151.69628 8058 ft 195 kts 312°
2026-04-30 09:41 -32.68649 151.68554 8795 ft 195 kts 335°
2026-04-30 09:41 -32.67342 151.68303 9524 ft 192 kts 15°
2026-04-30 09:42 -32.66130 151.68942 10265 ft 192 kts 34°
2026-04-30 09:42 -32.65014 151.69826 10938 ft 194 kts 37°
2026-04-30 09:42 -32.63906 151.70746 11612 ft 196 kts 37°
2026-04-30 09:42 -32.62779 151.71675 12252 ft 200 kts 36°
2026-04-30 09:43 -32.61626 151.72613 12957 ft 202 kts 36°
2026-04-30 09:43 -32.60461 151.73549 13670 ft 203 kts 35°
2026-04-30 09:43 -32.59281 151.74493 14343 ft 205 kts 35°
2026-04-30 09:43 -32.58086 151.75443 14933 ft 208 kts 35°
2026-04-30 09:44 -32.56874 151.76403 15511 ft 211 kts 35°
2026-04-30 09:44 -32.55646 151.77374 16080 ft 214 kts 35°
2026-04-30 09:44 -32.54399 151.78344 16644 ft 216 kts 34°
2026-04-30 09:44 -32.53127 151.79319 17204 ft 219 kts 34°
2026-04-30 09:45 -32.51839 151.80306 17758 ft 222 kts 34°
2026-04-30 09:45 -32.50534 151.81306 18298 ft 224 kts 34°
2026-04-30 09:45 -32.49201 151.82328 18816 ft 227 kts 35°
2026-04-30 09:45 -32.47865 151.83352 19267 ft 229 kts 35°
2026-04-30 09:46 -32.46521 151.84383 19719 ft 232 kts 35°
2026-04-30 09:46 -32.45163 151.85424 20154 ft 234 kts 35°
2026-04-30 09:46 -32.43801 151.86443 20588 ft 236 kts 31°
2026-04-30 09:46 -32.42294 151.87253 21011 ft 240 kts 21°
2026-04-30 09:47 -32.40699 151.87861 21432 ft 242 kts 18°
2026-04-30 09:47 -32.39075 151.88435 21842 ft 245 kts 18°
2026-04-30 09:47 -32.37441 151.89011 22245 ft 247 kts 18°
2026-04-30 09:47 -32.35790 151.89595 22644 ft 249 kts 18°
2026-04-30 09:48 -32.34124 151.90185 23034 ft 251 kts 18°
2026-04-30 09:48 -32.32449 151.90779 23418 ft 253 kts 18°
2026-04-30 09:48 -32.30759 151.91378 23792 ft 255 kts 18°
2026-04-30 09:48 -32.29058 151.91981 24130 ft 257 kts 18°
2026-04-30 09:49 -32.27321 151.92597 24435 ft 258 kts 18°
2026-04-30 09:49 -32.25619 151.93200 24734 ft 259 kts 18°
2026-04-30 09:49 -32.23863 151.93822 25023 ft 261 kts 18°
2026-04-30 09:49 -32.22115 151.94442 25304 ft 263 kts 18°
2026-04-30 09:50 -32.20372 151.95059 25577 ft 264 kts 18°
2026-04-30 09:50 -32.18606 151.95684 25854 ft 265 kts 18°
2026-04-30 09:50 -32.16854 151.96304 26121 ft 267 kts 17°
2026-04-30 09:50 -32.15048 151.96943 26392 ft 268 kts 17°
2026-04-30 09:51 -32.13257 151.97576 26656 ft 270 kts 17°
2026-04-30 09:51 -32.11453 151.98213 26917 ft 271 kts 17°
2026-04-30 09:51 -32.09644 151.98853 27154 ft 272 kts 17°
2026-04-30 09:51 -32.07824 151.99496 27398 ft 274 kts 17°
2026-04-30 09:52 -32.05957 151.99923 27623 ft 275 kts
2026-04-30 09:52 -32.04071 151.99612 27832 ft 275 kts 341°
2026-04-30 09:52 -32.02286 151.98793 28063 ft 276 kts 335°
2026-04-30 09:52 -32.00527 151.97880 28292 ft 277 kts 335°
2026-04-30 09:53 -31.98761 151.96942 28435 ft 282 kts 334°
2026-04-30 09:53 -31.96955 151.95972 28461 ft 290 kts 334°
2026-04-30 09:53 -31.95096 151.94968 28454 ft 298 kts 334°
2026-04-30 09:53 -31.93189 151.93935 28452 ft 305 kts 334°
2026-04-30 09:54 -31.89279 151.91813 28455 ft 317 kts 334°
2026-04-30 09:54 -31.85210 151.89605 28450 ft 326 kts 334°
2026-04-30 09:55 -31.81305 151.86824 28451 ft 332 kts 320°
2026-04-30 09:55 -31.77800 151.83234 28452 ft 336 kts 316°
2026-04-30 09:56 -31.74314 151.79514 28453 ft 340 kts 316°
2026-04-30 09:56 -31.70809 151.75742 28456 ft 343 kts 316°
2026-04-30 09:57 -31.67283 151.71944 28456 ft 345 kts 316°
2026-04-30 09:57 -31.63732 151.68122 28455 ft 347 kts 316°
2026-04-30 09:58 -31.60163 151.64283 28453 ft 349 kts 316°
2026-04-30 09:58 -31.56583 151.60439 28458 ft 349 kts 316°
2026-04-30 09:59 -31.49399 151.52735 28453 ft 351 kts 316°
2026-04-30 10:00 -31.43993 151.46950 28457 ft 351 kts 316°
2026-04-30 10:01 -31.38786 151.40938 28445 ft 350 kts 307°
2026-04-30 10:02 -31.34694 151.33904 28446 ft 350 kts 301°
2026-04-30 10:02 -31.32081 151.29100 28438 ft 350 kts 301°
2026-04-30 10:03 -31.29480 151.24290 28437 ft 350 kts 301°
2026-04-30 10:03 -31.26881 151.19481 28416 ft 350 kts 301°
2026-04-30 10:04 -31.24287 151.14686 28416 ft 349 kts 301°
2026-04-30 10:04 -31.21689 151.09892 28405 ft 349 kts 301°
2026-04-30 10:05 -31.19091 151.05102 28408 ft 349 kts 301°
2026-04-30 10:05 -31.16495 151.00323 28408 ft 348 kts 301°
2026-04-30 10:06 -31.13898 150.95548 28398 ft 348 kts 301°
2026-04-30 10:06 -31.11303 150.90782 28386 ft 348 kts 301°
2026-04-30 10:07 -31.08684 150.86038 28380 ft 349 kts 306°
2026-04-30 10:07 -31.07019 150.83982 28387 ft 350 kts 319°
2026-04-30 10:07 -31.05023 150.82353 28386 ft 351 kts 329°
2026-04-30 10:08 -31.00650 150.79792 28385 ft 352 kts 333°
2026-04-30 10:08 -30.96198 150.77395 28386 ft 352 kts 334°
2026-04-30 10:09 -30.91743 150.75047 28369 ft 353 kts 334°
2026-04-30 10:09 -30.87274 150.72705 28375 ft 353 kts 334°
2026-04-30 10:10 -30.82798 150.70364 28383 ft 353 kts 334°
2026-04-30 10:10 -30.78317 150.68023 28376 ft 353 kts 334°
2026-04-30 10:11 -30.73838 150.65687 28385 ft 353 kts 334°
2026-04-30 10:11 -30.69351 150.63348 28379 ft 353 kts 334°
2026-04-30 10:12 -30.64867 150.61014 28376 ft 353 kts 334°
2026-04-30 10:12 -30.60380 150.58680 28381 ft 353 kts 334°
2026-04-30 10:13 -30.55919 150.56362 28376 ft 353 kts 334°
2026-04-30 10:13 -30.51433 150.54034 28379 ft 353 kts 335°
2026-04-30 10:14 -30.46952 150.51710 28373 ft 353 kts 335°
2026-04-30 10:14 -30.40226 150.48228 28370 ft 353 kts 334°
2026-04-30 10:15 -30.35738 150.45907 28367 ft 353 kts 335°
2026-04-30 10:15 -30.31307 150.43486 28373 ft 352 kts 330°
2026-04-30 10:16 -30.27047 150.40697 28368 ft 352 kts 329°
2026-04-30 10:17 -30.21397 150.36955 28365 ft 351 kts 329°
2026-04-30 10:17 -30.15035 150.32735 28361 ft 351 kts 329°
2026-04-30 10:18 -30.10797 150.29926 28358 ft 351 kts 329°
2026-04-30 10:19 -30.04437 150.25717 28351 ft 351 kts 328°
2026-04-30 10:19 -30.00194 150.22912 28350 ft 351 kts 328°
2026-04-30 10:20 -29.95952 150.20110 28351 ft 351 kts 328°
2026-04-30 10:20 -29.89408 150.16291 28344 ft 353 kts 339°
2026-04-30 10:21 -29.84640 150.14855 28348 ft 355 kts 345°
2026-04-30 10:21 -29.79824 150.13637 28337 ft 354 kts 346°
2026-04-30 10:22 -29.75001 150.12458 28339 ft 354 kts 346°
2026-04-30 10:22 -29.70178 150.11290 28332 ft 354 kts 346°
2026-04-30 10:23 -29.65418 150.09891 28337 ft 352 kts 339°
2026-04-30 10:23 -29.60874 150.07815 28329 ft 351 kts 335°
2026-04-30 10:24 -29.56387 150.05586 28334 ft 351 kts 334°
2026-04-30 10:24 -29.51909 150.03332 28328 ft 351 kts 334°
2026-04-30 10:25 -29.47440 150.01079 28331 ft 351 kts 334°
2026-04-30 10:25 -29.42971 149.98826 28327 ft 351 kts 334°
2026-04-30 10:26 -29.38502 149.96576 28327 ft 351 kts 334°
2026-04-30 10:26 -29.34031 149.94326 28328 ft 351 kts 334°
2026-04-30 10:27 -29.29571 149.92084 28325 ft 351 kts 334°
2026-04-30 10:27 -29.25102 149.89840 28325 ft 351 kts 334°
2026-04-30 10:28 -29.20635 149.87599 28324 ft 350 kts 333°
2026-04-30 10:28 -29.16173 149.85363 28325 ft 350 kts 333°
2026-04-30 10:29 -29.11719 149.83133 28325 ft 350 kts 333°
2026-04-30 10:29 -29.07262 149.80903 28325 ft 349 kts 333°
2026-04-30 10:30 -29.02810 149.78678 28324 ft 349 kts 333°
2026-04-30 10:30 -28.98355 149.76454 28325 ft 349 kts 333°
2026-04-30 10:31 -28.93904 149.74235 28322 ft 349 kts 333°
2026-04-30 10:31 -28.89456 149.72018 28321 ft 349 kts 334°
2026-04-30 10:32 -28.85021 149.69811 28320 ft 348 kts 334°
2026-04-30 10:32 -28.80576 149.67600 28321 ft 348 kts 334°
2026-04-30 10:33 -28.76138 149.65395 28320 ft 348 kts 334°
2026-04-30 10:33 -28.71694 149.63189 28320 ft 348 kts 334°
2026-04-30 10:34 -28.67255 149.60987 28321 ft 348 kts 334°
2026-04-30 10:34 -28.62817 149.58789 28314 ft 347 kts 334°
2026-04-30 10:35 -28.58396 149.56600 28318 ft 347 kts 334°
2026-04-30 10:35 -28.53976 149.54415 28318 ft 346 kts 334°
2026-04-30 10:36 -28.49561 149.52233 28318 ft 346 kts 334°
2026-04-30 10:36 -28.45149 149.50055 28316 ft 346 kts 334°
2026-04-30 10:37 -28.40741 149.47882 28313 ft 345 kts 334°
2026-04-30 10:37 -28.36334 149.45710 28311 ft 345 kts 334°
2026-04-30 10:38 -28.31931 149.43543 28313 ft 345 kts 334°
2026-04-30 10:38 -28.27530 149.41378 28312 ft 345 kts 334°
2026-04-30 10:39 -28.23403 149.38751 28308 ft 339 kts 314°
2026-04-30 10:39 -28.21967 149.36659 28304 ft 335 kts 297°
2026-04-30 10:39 -28.20988 149.34270 28311 ft 334 kts 291°
2026-04-30 10:40 -28.19298 149.29364 28307 ft 334 kts 289°
2026-04-30 10:40 -28.17741 149.24424 28301 ft 334 kts 288°
2026-04-30 10:41 -28.16208 149.19450 28302 ft 334 kts 288°
2026-04-30 10:41 -28.14683 149.14474 28301 ft 334 kts 288°
2026-04-30 10:42 -28.13158 149.09500 28302 ft 334 kts 288°
2026-04-30 10:42 -28.11629 149.04521 28303 ft 334 kts 288°
2026-04-30 10:43 -28.10101 148.99552 28299 ft 334 kts 288°
2026-04-30 10:43 -28.08572 148.94587 28298 ft 334 kts 288°
2026-04-30 10:44 -28.07042 148.89629 28299 ft 333 kts 288°
2026-04-30 10:44 -28.05512 148.84678 28299 ft 333 kts 288°
2026-04-30 10:45 -28.03980 148.79730 28296 ft 333 kts 288°
2026-04-30 10:45 -28.02447 148.74785 28298 ft 333 kts 288°
2026-04-30 10:46 -28.00913 148.69844 28293 ft 332 kts 288°
2026-04-30 10:46 -27.99380 148.64914 28294 ft 332 kts 288°
2026-04-30 10:47 -27.97845 148.59988 28292 ft 332 kts 288°
2026-04-30 10:47 -27.96309 148.55065 28288 ft 332 kts 288°
2026-04-30 10:48 -27.94772 148.50144 28291 ft 332 kts 288°
2026-04-30 10:48 -27.93233 148.45226 28288 ft 332 kts 289°
2026-04-30 10:49 -27.91691 148.40308 28291 ft 332 kts 289°
2026-04-30 10:49 -27.90147 148.35389 28289 ft 332 kts 289°
2026-04-30 10:50 -27.88608 148.30493 28291 ft 332 kts 289°
2026-04-30 10:50 -27.87061 148.25576 28291 ft 332 kts 289°
2026-04-30 10:51 -27.85511 148.20661 28288 ft 332 kts 289°
2026-04-30 10:51 -27.83959 148.15745 28288 ft 332 kts 289°
2026-04-30 10:52 -27.82401 148.10819 28288 ft 333 kts 289°
2026-04-30 10:52 -27.80842 148.05898 28289 ft 333 kts 289°
2026-04-30 10:53 -27.79280 148.00970 28286 ft 333 kts 289°
2026-04-30 10:53 -27.77714 147.96041 28286 ft 333 kts 289°
2026-04-30 10:54 -27.76147 147.91115 28285 ft 333 kts 289°
2026-04-30 10:54 -27.74843 147.87020 28290 ft 334 kts 289°
2026-04-30 10:55 -27.73271 147.82089 28289 ft 334 kts 289°
2026-04-30 10:55 -27.71428 147.76320 28283 ft 334 kts 289°
2026-04-30 10:56 -27.70116 147.72217 28286 ft 334 kts 289°
2026-04-30 10:56 -27.68536 147.67283 28282 ft 335 kts 289°
2026-04-30 10:57 -27.66951 147.62344 28282 ft 335 kts 289°
2026-04-30 10:57 -27.65366 147.57408 28280 ft 335 kts 289°
2026-04-30 10:58 -27.63778 147.52471 28280 ft 335 kts 289°
2026-04-30 10:58 -27.62189 147.47537 28273 ft 335 kts 289°
2026-04-30 10:59 -27.60598 147.42605 28276 ft 335 kts 289°
2026-04-30 10:59 -27.59011 147.37694 28279 ft 335 kts 289°
2026-04-30 11:00 -27.57418 147.32769 28280 ft 335 kts 289°
2026-04-30 11:00 -27.55823 147.27844 28282 ft 335 kts 289°
2026-04-30 11:01 -27.54226 147.22919 28278 ft 335 kts 289°
2026-04-30 11:01 -27.52625 147.17992 28279 ft 335 kts 289°
2026-04-30 11:02 -27.51024 147.13069 28276 ft 335 kts 289°
2026-04-30 11:02 -27.49420 147.08147 28273 ft 334 kts 289°
2026-04-30 11:03 -27.47821 147.03244 28273 ft 333 kts 289°
2026-04-30 11:04 -27.45426 146.95915 28275 ft 332 kts 289°
2026-04-30 11:04 -27.43832 146.91043 28279 ft 331 kts 289°
2026-04-30 11:05 -27.42237 146.86178 28276 ft 331 kts 289°
2026-04-30 11:05 -27.40647 146.81331 28277 ft 330 kts 288°
2026-04-30 11:06 -27.39058 146.76497 28279 ft 329 kts 288°
2026-04-30 11:06 -27.37472 146.71677 28269 ft 328 kts 288°
2026-04-30 11:07 -27.35887 146.66867 28278 ft 328 kts 288°
2026-04-30 11:07 -27.34302 146.62065 28273 ft 327 kts 288°
2026-04-30 11:08 -27.32716 146.57263 28269 ft 327 kts 288°
2026-04-30 11:08 -27.31130 146.52472 28270 ft 327 kts 288°
2026-04-30 11:09 -27.29545 146.47687 28270 ft 327 kts 288°
2026-04-30 11:09 -27.27958 146.42903 28265 ft 327 kts 288°
2026-04-30 11:10 -27.26370 146.38121 28268 ft 326 kts 288°
2026-04-30 11:10 -27.24780 146.33341 28269 ft 327 kts 288°
2026-04-30 11:11 -27.23190 146.28567 28264 ft 326 kts 287°
2026-04-30 11:11 -27.21606 146.23817 28267 ft 326 kts 287°
2026-04-30 11:12 -27.20012 146.19043 28263 ft 326 kts 287°
2026-04-30 11:12 -27.18415 146.14267 28263 ft 326 kts 287°
2026-04-30 11:13 -27.16818 146.09497 28264 ft 327 kts 287°
2026-04-30 11:13 -27.15218 146.04725 28263 ft 327 kts 287°
2026-04-30 11:14 -27.13618 145.99956 28261 ft 326 kts 287°
2026-04-30 11:14 -27.12017 145.95195 28261 ft 326 kts 287°
2026-04-30 11:15 -27.10416 145.90437 28256 ft 326 kts 287°
2026-04-30 11:15 -27.08813 145.85680 28258 ft 326 kts 287°
2026-04-30 11:16 -27.07209 145.80926 28261 ft 326 kts 287°
2026-04-30 11:16 -27.05614 145.76206 28256 ft 325 kts 287°
2026-04-30 11:17 -27.04010 145.71463 28258 ft 325 kts 287°
2026-04-30 11:17 -27.02405 145.66724 28253 ft 325 kts 288°
2026-04-30 11:18 -27.00798 145.61986 28256 ft 325 kts 288°
2026-04-30 11:18 -26.98374 145.54852 28253 ft 325 kts 288°
2026-04-30 11:19 -26.96765 145.50121 28252 ft 325 kts 288°
2026-04-30 11:19 -26.95154 145.45394 28249 ft 324 kts 288°
2026-04-30 11:20 -26.93544 145.40672 28247 ft 324 kts 288°
2026-04-30 11:20 -26.91944 145.35989 28247 ft 324 kts 288°
2026-04-30 11:21 -26.90333 145.31277 28247 ft 324 kts 288°
2026-04-30 11:21 -26.88726 145.26584 28248 ft 324 kts 288°
2026-04-30 11:22 -26.87111 145.21873 28244 ft 324 kts 288°
2026-04-30 11:22 -26.85495 145.17165 28245 ft 324 kts 288°
2026-04-30 11:23 -26.83875 145.12450 28241 ft 324 kts 288°
2026-04-30 11:23 -26.81637 145.08059 28242 ft 329 kts 305°
2026-04-30 11:24 -26.80120 145.06123 28245 ft 331 kts 308°
2026-04-30 11:24 -26.76984 145.02352 28239 ft 331 kts 309°
2026-04-30 11:25 -26.72216 144.96754 28240 ft 331 kts 309°
2026-04-30 11:26 -26.65834 144.89317 28236 ft 331 kts 310°
2026-04-30 11:26 -26.62636 144.85599 28232 ft 331 kts 310°
2026-04-30 11:27 -26.59443 144.81891 28235 ft 331 kts 310°
2026-04-30 11:27 -26.56242 144.78178 28233 ft 332 kts 310°
2026-04-30 11:28 -26.51445 144.72620 28231 ft 332 kts 310°
2026-04-30 11:29 -26.48240 144.68912 28229 ft 332 kts 310°
2026-04-30 11:29 -26.43430 144.63354 28226 ft 332 kts 310°
2026-04-30 11:30 -26.38619 144.57804 28229 ft 332 kts 310°
2026-04-30 11:31 -26.35420 144.54117 28227 ft 332 kts 310°
2026-04-30 11:31 -26.32207 144.50418 28223 ft 332 kts 310°
2026-04-30 11:32 -26.29015 144.46747 28222 ft 332 kts 310°
2026-04-30 11:32 -26.25801 144.43053 28216 ft 331 kts 310°
2026-04-30 11:33 -26.20989 144.37531 28223 ft 331 kts 310°
2026-04-30 11:33 -26.17779 144.33851 28217 ft 331 kts 310°
2026-04-30 11:34 -26.14570 144.30176 28220 ft 331 kts 310°
2026-04-30 11:34 -26.11359 144.26502 28220 ft 331 kts 310°
2026-04-30 11:35 -26.08149 144.22833 28220 ft 331 kts 310°
2026-04-30 11:35 -26.04942 144.19169 28220 ft 331 kts 310°
2026-04-30 11:36 -26.01732 144.15506 28217 ft 330 kts 310°
2026-04-30 11:36 -25.98543 144.11870 28215 ft 330 kts 310°
2026-04-30 11:37 -25.95853 144.08806 28214 ft 330 kts 310°
2026-04-30 11:37 -25.92646 144.05156 28215 ft 330 kts 310°
2026-04-30 11:38 -25.89434 144.01502 28215 ft 330 kts 310°
2026-04-30 11:38 -25.86225 143.97856 28212 ft 330 kts 310°
2026-04-30 11:39 -25.83017 143.94214 28209 ft 330 kts 310°
2026-04-30 11:39 -25.79810 143.90576 28209 ft 330 kts 310°
2026-04-30 11:40 -25.76603 143.86941 28209 ft 330 kts 310°
2026-04-30 11:40 -25.73396 143.83309 28209 ft 329 kts 310°
2026-04-30 11:41 -25.70188 143.79679 28210 ft 329 kts 310°
2026-04-30 11:41 -25.66982 143.76055 28211 ft 329 kts 310°
2026-04-30 11:42 -25.63772 143.72429 28208 ft 329 kts 310°
2026-04-30 11:42 -25.60561 143.68805 28209 ft 330 kts 310°
2026-04-30 11:43 -25.57347 143.65181 28207 ft 329 kts 310°
2026-04-30 11:43 -25.54136 143.61563 28207 ft 330 kts 310°
2026-04-30 11:44 -25.50924 143.57947 28206 ft 329 kts 310°
2026-04-30 11:44 -25.47709 143.54330 28204 ft 330 kts 310°
2026-04-30 11:45 -25.44494 143.50718 28201 ft 330 kts 310°
2026-04-30 11:45 -25.41276 143.47104 28201 ft 330 kts 310°
2026-04-30 11:46 -25.38056 143.43491 28198 ft 330 kts 310°
2026-04-30 11:46 -25.34836 143.39880 28198 ft 330 kts 310°
2026-04-30 11:47 -25.31618 143.36275 28199 ft 330 kts 310°
2026-04-30 11:47 -25.28392 143.32665 28195 ft 330 kts 310°
2026-04-30 11:48 -25.25166 143.29056 28195 ft 330 kts 310°
2026-04-30 11:48 -25.21940 143.25450 28196 ft 330 kts 310°
2026-04-30 11:49 -25.18713 143.21847 28193 ft 330 kts 311°
2026-04-30 11:49 -25.15480 143.18240 28180 ft 330 kts 311°
2026-04-30 11:50 -25.12262 143.14654 28191 ft 331 kts 311°
2026-04-30 11:50 -25.09023 143.11045 28190 ft 331 kts 311°
2026-04-30 11:51 -25.05780 143.07435 28191 ft 331 kts 311°
2026-04-30 11:51 -25.02532 143.03824 28190 ft 332 kts 311°
2026-04-30 11:52 -24.99281 143.00211 28190 ft 332 kts 311°
2026-04-30 11:52 -24.96024 142.96594 28190 ft 332 kts 311°
2026-04-30 11:53 -24.92769 142.92983 28190 ft 332 kts 311°
2026-04-30 11:53 -24.89508 142.89368 28190 ft 333 kts 311°
2026-04-30 11:54 -24.86247 142.85756 28187 ft 333 kts 311°
2026-04-30 11:54 -24.82984 142.82145 28187 ft 333 kts 311°
2026-04-30 11:55 -24.79717 142.78532 28188 ft 333 kts 311°
2026-04-30 11:55 -24.76448 142.74919 28185 ft 333 kts 310°
2026-04-30 11:56 -24.73179 142.71310 28184 ft 333 kts 310°
2026-04-30 11:56 -24.69909 142.67702 28183 ft 333 kts 310°
2026-04-30 11:57 -24.66638 142.64096 28190 ft 333 kts 310°
2026-04-30 11:57 -24.63367 142.60492 28193 ft 333 kts 310°
2026-04-30 11:58 -24.60091 142.56887 28183 ft 333 kts 310°
2026-04-30 11:58 -24.56814 142.53283 28190 ft 333 kts 310°
2026-04-30 11:59 -24.53535 142.49680 28182 ft 333 kts 310°
2026-04-30 11:59 -24.50253 142.46075 28178 ft 334 kts 310°
2026-04-30 12:00 -24.46975 142.42479 28188 ft 334 kts 310°
2026-04-30 12:00 -24.43689 142.38877 28187 ft 334 kts 310°
2026-04-30 12:01 -24.40402 142.35276 28178 ft 334 kts 310°
2026-04-30 12:01 -24.37110 142.31672 28173 ft 334 kts 310°
2026-04-30 12:02 -24.33819 142.28072 28180 ft 334 kts 310°
2026-04-30 12:02 -24.30529 142.24477 28182 ft 334 kts 310°
2026-04-30 12:03 -24.25581 142.19075 28179 ft 335 kts 310°
2026-04-30 12:04 -24.22279 142.15473 28174 ft 335 kts 310°
2026-04-30 12:04 -24.18974 142.11871 28180 ft 335 kts 310°
2026-04-30 12:05 -24.15667 142.08269 28176 ft 335 kts 310°
2026-04-30 12:05 -24.12358 142.04668 28175 ft 335 kts 310°
2026-04-30 12:06 -24.09063 142.01085 28167 ft 335 kts 310°
2026-04-30 12:06 -24.05753 141.97488 28174 ft 335 kts 310°
2026-04-30 12:07 -24.02441 141.93893 28171 ft 335 kts 309°
2026-04-30 12:07 -23.99128 141.90298 28171 ft 335 kts 309°
2026-04-30 12:08 -23.95814 141.86705 28172 ft 336 kts 309°
2026-04-30 12:08 -23.92472 141.83086 28169 ft 336 kts 309°
2026-04-30 12:09 -23.89154 141.79495 28167 ft 336 kts 309°
2026-04-30 12:09 -23.85836 141.75906 28169 ft 336 kts 309°
2026-04-30 12:10 -23.82537 141.72341 28161 ft 336 kts 309°
2026-04-30 12:10 -23.79754 141.69335 28161 ft 336 kts 309°